Theta_e
326 324 324 326 325 329 333 335 332 331 336 337 336 334 331 326 327 336 340 337 339 343 345 348 349 351 352 350 350 349 349 351 351 350 353 355 355 354 353 355 356 355 356 354 351 351 350 351 351 351 352 351 351 351 351 352 352 353 353 353 353 353 353 355 355 355 355 355 355 355 355 354 353 352 351 353 352 352 352 353 353 351 351 350 345 343
327 323 324 331 331 330 332 332 332 331 332 337 335 331 329 328 329 336 341 337 338 342 342 348 350 350 350 349 348 349 349 351 351 349 351 355 355 353 354 355 355 357 358 357 356 352 350 352 351 351 353 352 352 352 352 352 352 353 353 353 354 355 355 356 356 357 356 356 355 355 355 352 351 352 352 353 351 349 348 350 350 350 349 346 342 343
325 323 323 329 332 330 332 333 332 332 332 334 335 329 325 329 333 336 341 338 337 341 342 348 349 348 350 347 347 348 348 348 349 349 351 354 354 354 355 355 354 359 362 360 359 355 352 354 353 352 355 353 353 353 352 352 353 354 354 354 356 357 357 356 356 356 356 355 355 354 353 351 351 352 350 351 349 345 346 348 348 348 346 343 343 346
321 325 327 327 330 332 332 332 333 332 330 331 334 327 323 330 330 327 335 340 339 342 343 347 347 347 349 347 348 348 346 348 347 347 351 351 353 354 355 355 354 360 362 360 360 359 356 357 356 354 356 357 355 354 354 354 355 356 356 356 356 357 356 355 355 354 354 353 353 354 353 352 353 350 349 350 348 346 347 348 348 347 346 346 346 345
324 331 332 328 330 332 331 332 333 329 325 328 333 328 324 330 330 330 337 339 340 342 344 344 339 340 346 346 348 348 346 348 348 349 351 351 351 353 355 355 356 359 360 361 361 360 358 357 358 358 358 359 358 358 356 356 356 357 358 356 354 356 355 355 354 353 352 352 352 353 353 353 352 347 346 347 344 345 348 347 344 344 346 348 344 340
325 328 330 329 331 331 331 332 332 328 323 322 329 331 330 331 334 337 339 335 332 332 339 341 331 333 343 346 345 347 348 350 350 351 353 353 353 353 357 357 356 359 359 360 361 360 359 358 358 359 359 359 360 359 358 357 358 357 357 355 354 355 355 355 354 353 352 352 352 353 351 351 349 344 342 342 339 341 342 340 338 338 342 343 341 340
323 326 329 331 333 331 331 329 329 331 321 316 329 336 331 332 336 336 336 330 324 327 338 341 333 331 336 341 346 346 349 351 351 352 352 353 354 353 356 357 357 359 359 359 360 360 358 358 357 358 358 359 359 359 359 358 358 357 356 355 355 355 355 354 353 353 353 353 354 350 348 348 346 341 340 339 338 337 338 337 337 338 339 339 338 338
325 326 326 330 331 330 329 327 329 331 320 319 336 338 332 333 335 336 333 326 325 330 337 338 338 332 329 335 345 346 348 352 351 352 353 353 353 353 354 356 357 359 359 360 359 360 359 357 357 357 358 359 359 359 359 358 358 357 356 355 356 355 355 354 354 354 354 355 352 347 346 347 343 340 339 340 338 336 336 337 337 337 338 338 337 336
326 325 326 329 329 327 328 327 330 330 324 326 334 334 332 331 335 339 332 326 330 330 325 332 339 334 333 345 355 349 345 348 351 351 352 352 352 352 352 355 358 358 359 359 358 360 358 356 357 357 358 358 358 359 358 358 358 357 357 356 356 356 354 354 353 355 356 353 350 348 347 344 340 339 339 339 338 336 337 337 337 338 338 338 338 337
327 325 327 328 327 328 328 329 331 329 327 330 330 330 331 331 336 337 333 327 326 325 321 325 332 333 337 349 354 348 342 343 350 351 351 353 351 352 353 354 357 358 358 358 358 358 357 356 357 356 357 358 358 359 358 358 358 357 357 357 356 356 355 354 355 356 355 351 350 349 345 340 338 339 338 338 337 336 337 338 337 337 339 338 337 338
326 327 330 329 328 330 329 330 330 328 329 330 330 328 326 338 342 338 346 337 319 320 325 323 327 330 331 340 347 345 344 344 347 349 350 352 352 351 352 354 356 358 358 358 357 357 356 356 357 356 357 358 359 359 358 359 358 358 358 357 357 356 355 356 355 355 353 352 350 347 341 338 338 338 337 337 335 336 337 337 337 337 338 338 337 337
324 325 328 327 329 331 329 330 329 330 331 327 333 328 320 333 337 325 333 330 313 319 331 327 327 326 321 333 348 348 347 346 346 348 350 351 352 352 352 354 357 357 357 357 358 357 356 357 357 356 356 357 358 359 359 359 359 358 358 357 357 356 356 357 356 354 353 353 348 342 340 338 338 339 339 337 335 335 335 336 337 337 338 337 336 336
322 324 327 326 330 331 329 328 327 328 330 325 331 325 315 320 323 317 320 322 318 324 331 327 324 322 321 334 350 350 348 348 345 346 347 349 350 351 352 353 356 357 355 356 357 356 357 357 356 356 355 355 357 358 358 358 359 358 358 358 358 357 358 356 356 353 351 348 343 340 338 336 337 339 339 336 335 335 336 337 338 338 338 337 336 335
317 322 325 324 328 330 329 325 320 323 328 325 325 320 317 320 317 316 322 321 319 322 325 325 323 320 322 335 349 350 347 347 345 345 345 347 351 350 351 352 354 356 355 355 356 355 356 356 355 355 355 354 356 357 358 358 358 359 358 358 358 358 357 356 355 352 344 342 340 338 337 337 338 338 336 335 334 336 337 337 338 338 337 336 335 335
313 317 324 325 324 329 331 327 324 328 329 326 333 328 324 327 321 319 324 321 318 321 321 321 323 320 320 334 352 348 345 347 345 345 347 347 349 349 349 351 352 354 355 354 356 355 354 353 353 354 354 354 355 357 357 358 358 359 358 359 358 357 357 356 354 348 341 339 338 337 338 338 337 337 335 334 333 335 336 337 337 337 336 336 335 335
311 314 329 329 326 329 329 329 329 329 326 324 335 330 321 329 329 320 325 330 325 322 322 320 326 336 338 345 356 345 345 350 345 349 350 346 348 347 348 352 352 354 354 353 354 355 354 352 352 354 353 353 355 356 357 357 358 358 357 358 357 356 357 355 349 343 340 340 338 338 340 338 336 336 335 334 334 334 336 337 337 336 335 335 335 335
311 316 332 329 327 329 326 331 329 325 328 328 324 322 323 335 335 320 320 330 322 318 326 324 324 336 339 341 354 350 349 355 349 349 348 345 348 348 348 352 350 352 354 351 352 353 353 352 351 352 352 352 354 355 356 357 357 358 358 357 356 354 354 351 346 342 342 342 339 338 340 338 336 336 334 334 334 335 336 336 336 335 335 334 335 336
318 317 330 329 325 329 327 329 330 328 335 330 317 322 330 331 338 333 322 323 320 319 327 324 318 323 324 331 355 360 354 355 350 347 346 346 348 346 348 350 349 353 352 351 352 350 351 351 349 352 352 351 354 355 356 357 357 357 357 356 355 352 351 348 346 344 343 342 340 338 338 337 337 336 335 335 334 335 337 335 334 335 334 333 335 336
324 315 328 337 326 328 330 325 326 327 332 330 324 330 331 319 321 327 320 318 319 319 322 323 323 324 323 331 348 352 354 354 349 348 347 347 348 346 347 348 349 351 351 350 351 350 351 350 349 351 352 351 353 355 356 357 357 357 356 356 354 352 351 349 346 344 342 342 341 340 339 338 337 337 336 336 335 335 336 335 334 335 333 333 335 335
328 316 320 338 331 327 330 324 318 320 327 330 330 330 332 326 321 320 320 320 319 320 323 324 323 326 337 351 353 349 354 352 347 349 348 345 347 347 345 347 348 350 351 350 349 349 351 349 349 351 351 351 353 354 356 356 357 357 356 354 353 352 351 349 345 343 343 343 342 341 339 339 338 337 337 338 336 336 337 336 336 334 332 333 335 335
327 319 315 331 335 324 323 323 321 322 324 324 322 322 322 324 323 321 324 323 321 324 328 325 323 334 357 369 357 348 349 347 345 348 347 345 345 346 346 346 348 349 350 348 348 349 349 347 348 350 351 351 352 354 356 356 357 357 355 353 352 350 349 347 345 343 343 343 341 339 339 339 338 337 338 338 337 337 337 337 335 332 331 333 335 335
325 325 318 319 321 317 321 329 328 327 328 325 323 322 320 321 321 317 319 322 321 325 328 325 322 335 363 364 351 349 346 344 345 345 346 347 345 345 346 345 347 349 348 348 346 346 349 348 347 349 351 350 351 354 355 356 357 356 355 353 351 350 348 347 345 343 343 343 341 340 339 339 338 338 339 338 337 337 337 335 334 331 330 332 333 334
331 333 323 316 319 323 327 330 328 326 330 330 328 327 327 330 322 314 318 322 320 321 327 328 323 334 372 373 347 346 350 343 344 347 347 348 344 346 347 345 347 349 348 346 345 345 349 348 347 347 349 349 351 353 354 356 357 356 355 353 350 349 348 346 345 343 342 342 341 340 339 338 338 338 339 337 336 336 336 335 333 329 329 331 331 332
333 328 320 318 325 329 329 330 328 330 328 326 328 328 325 329 327 331 343 339 323 318 322 326 323 334 385 394 349 341 349 342 342 346 346 348 346 346 348 348 348 349 349 347 345 346 348 347 348 347 348 349 350 352 353 355 356 355 354 353 351 349 348 346 344 342 341 342 340 338 338 338 339 339 338 338 336 336 335 334 330 328 329 330 331 332
326 325 320 317 319 319 321 323 320 325 327 326 332 329 326 332 330 336 351 336 322 322 324 325 323 334 377 392 350 339 343 339 341 344 344 348 348 347 352 352 351 351 352 351 348 349 350 351 352 348 346 349 349 351 353 354 355 355 354 353 351 349 348 345 344 342 341 340 338 337 338 338 339 339 339 338 336 336 335 333 329 329 331 332 333 334
330 338 326 316 317 317 317 320 321 325 327 327 333 328 327 332 324 326 332 320 317 327 328 327 328 334 359 365 344 342 342 338 343 343 343 348 348 350 354 353 353 355 355 353 351 351 353 354 354 349 346 349 350 350 352 353 354 355 353 352 351 349 348 345 344 342 340 339 338 338 338 338 339 340 339 337 336 336 335 333 331 332 333 334 334 333
339 346 331 321 322 321 323 332 341 338 325 319 324 326 327 330 326 333 329 320 324 331 329 336 338 328 338 351 345 344 342 339 345 345 347 351 350 353 356 354 356 356 355 354 353 352 354 356 356 352 348 348 350 350 352 353 353 353 352 352 351 350 348 345 343 342 340 338 337 338 339 339 339 339 338 337 336 335 335 335 334 334 336 335 333 331
337 332 330 332 329 327 333 341 344 334 322 319 322 324 327 331 331 330 324 327 338 329 322 344 349 325 330 349 346 342 342 342 345 345 347 352 352 353 356 356 358 356 355 355 353 352 355 355 356 355 349 348 350 350 352 352 353 352 352 351 351 349 348 345 343 342 340 339 338 339 339 339 338 338 337 337 336 335 336 336 335 336 336 334 331 331
338 325 328 333 329 332 338 339 339 332 324 325 326 324 326 328 328 325 328 341 344 325 321 343 346 330 334 345 342 338 341 343 344 342 343 348 351 353 354 356 359 358 356 357 355 354 354 352 355 356 351 349 350 351 351 352 352 352 351 351 349 349 347 345 344 342 340 339 339 340 339 338 339 338 337 336 336 337 336 336 336 337 335 333 332 332
335 329 337 331 325 333 337 334 335 330 325 325 325 327 328 327 326 326 334 346 342 333 339 347 342 338 339 338 337 337 338 342 342 342 341 344 348 353 358 362 362 359 358 358 356 355 354 352 352 354 353 350 349 351 351 351 352 351 350 349 348 347 346 345 344 342 340 339 339 339 339 339 338 338 337 337 336 336 335 335 337 337 335 333 333 333
328 334 349 335 321 325 332 333 332 328 328 323 321 329 329 326 330 326 329 340 335 332 342 343 338 344 343 338 340 343 346 347 345 344 345 348 349 352 358 364 365 363 361 361 360 357 357 356 353 353 354 350 349 351 351 351 351 350 349 348 347 346 345 344 343 341 340 339 339 340 339 340 339 337 335 336 336 335 335 336 337 337 336 335 333 332
332 337 348 334 318 319 327 329 328 328 329 322 319 327 328 326 329 329 333 338 331 333 343 338 332 339 344 344 348 352 350 345 343 347 352 354 354 352 355 359 363 365 364 365 367 367 367 367 364 360 354 348 349 351 351 351 350 348 348 347 345 344 343 342 341 341 340 339 339 340 339 339 337 334 334 336 336 337 337 337 337 337 336 335 333 333
340 334 337 331 318 318 327 329 331 329 321 319 325 330 330 333 333 331 338 344 341 348 354 342 337 346 350 346 348 349 346 344 346 348 351 355 357 356 358 361 362 365 368 373 379 381 382 381 371 360 351 347 350 351 350 350 349 347 347 345 343 342 341 341 341 341 340 339 339 339 338 336 332 331 334 338 337 337 338 338 337 336 335 334 334 333
355 340 338 339 323 318 329 336 332 323 316 322 337 337 333 335 336 334 336 340 343 352 355 348 347 357 356 347 347 346 343 346 348 345 349 356 357 357 361 363 363 363 364 371 384 394 399 390 367 354 351 350 350 351 350 349 348 346 344 341 339 340 340 341 341 341 340 339 338 338 336 335 332 332 336 339 337 337 338 338 337 336 335 335 334 333
362 348 346 352 334 324 335 336 321 316 327 344 348 338 336 337 338 341 342 340 343 346 349 347 343 344 348 345 345 345 346 351 351 349 353 359 360 361 362 361 366 366 362 368 377 385 393 382 359 350 353 353 350 351 349 346 344 343 340 339 338 339 340 339 338 338 338 337 336 336 336 336 335 336 339 339 338 339 338 338 337 336 334 334 334 333
355 350 347 351 337 328 333 331 321 324 344 358 346 336 340 343 343 344 340 339 345 346 344 347 344 342 343 343 344 349 352 353 350 349 352 358 366 371 367 364 368 369 369 370 367 363 365 362 354 350 352 351 350 350 346 343 342 341 338 339 338 338 339 338 337 336 336 336 336 337 338 337 336 337 339 339 339 339 338 337 337 335 335 335 334 334
359 360 352 342 335 332 330 330 335 335 334 342 344 339 340 342 347 349 337 335 347 348 342 345 348 348 347 346 346 347 346 346 345 342 343 347 355 360 360 357 360 365 369 364 357 352 351 351 351 350 349 348 347 346 343 342 341 339 338 338 338 339 338 337 336 336 336 337 337 337 338 337 335 336 337 337 338 338 336 336 335 335 336 335 335 335
354 362 355 337 333 340 337 332 336 329 323 335 348 345 338 339 350 359 348 340 346 347 343 345 347 346 346 344 343 343 343 344 342 339 340 342 346 351 352 352 357 363 362 354 348 347 347 346 347 347 346 345 343 342 342 341 340 339 338 338 338 338 337 337 337 337 337 338 337 335 336 336 336 337 337 337 337 335 335 335 335 335 336 335 336 335
340 352 362 346 337 344 343 334 329 324 326 341 347 341 337 337 349 362 348 337 343 346 344 345 342 340 340 342 342 345 345 343 338 337 341 344 348 351 352 354 358 356 350 347 348 347 343 343 344 343 344 342 340 340 341 340 339 338 337 338 337 336 336 336 337 336 336 336 334 334 335 337 337 339 339 338 337 336 336 336 335 336 336 335 335 334
353 358 359 346 338 340 339 333 330 328 333 342 341 337 336 340 355 354 333 332 347 348 344 345 344 344 347 346 345 345 343 343 342 341 339 342 347 349 350 356 360 357 350 347 347 345 342 342 341 340 340 339 338 339 340 339 339 338 337 338 338 336 336 336 336 336 336 335 334 334 336 338 340 342 341 340 339 337 337 337 336 337 337 335 334 334
356 357 352 345 342 339 335 330 328 331 340 341 337 336 338 344 355 344 331 342 355 346 340 343 342 343 346 345 344 343 342 343 346 343 340 342 348 350 348 348 349 350 348 345 345 344 341 340 340 339 339 338 338 338 338 338 337 336 337 337 337 337 336 336 336 336 335 335 335 335 337 340 342 344 342 340 340 339 337 337 337 336 336 335 335 334
345 346 345 349 347 342 342 338 331 334 343 340 335 340 345 344 343 337 338 350 352 343 342 344 342 343 345 346 346 344 342 341 343 344 347 353 359 359 355 352 350 349 346 345 345 344 341 339 339 338 337 337 337 337 336 336 336 336 335 335 336 337 336 335 335 335 335 335 336 336 337 339 342 344 343 341 339 338 337 337 337 336 336 335 334 331
350 339 334 341 347 348 351 348 339 340 346 338 336 351 356 348 346 349 347 344 341 341 343 343 343 345 345 345 346 344 343 342 343 347 353 360 367 366 359 357 357 352 345 343 344 343 342 340 338 337 337 336 336 337 336 335 336 335 334 334 335 335 335 335 335 335 335 335 335 336 337 339 341 343 343 341 339 337 337 336 336 335 334 332 330 328
352 345 339 342 348 349 348 347 343 344 344 338 338 347 348 344 351 359 351 341 339 341 342 342 344 345 344 345 345 345 343 342 343 351 357 357 359 360 356 354 353 348 343 342 342 343 342 340 337 336 336 335 335 336 336 336 336 335 335 335 334 334 334 334 334 335 335 335 336 338 339 340 341 342 341 340 337 335 334 333 333 332 331 329 327 327
348 354 349 344 345 346 344 343 345 347 345 338 335 338 339 340 343 344 341 339 339 339 340 342 344 346 346 346 347 349 350 348 349 358 361 357 354 354 355 353 349 345 343 342 341 342 341 339 338 337 335 335 336 336 336 336 336 335 335 335 334 334 334 334 334 335 336 337 338 339 339 340 340 340 341 340 338 335 333 332 330 330 329 328 328 328
345 350 350 346 344 343 342 340 341 346 345 338 333 333 334 335 336 335 336 339 339 338 339 342 345 347 347 347 350 354 353 356 364 364 358 355 355 353 352 352 348 343 342 341 340 341 339 338 337 336 336 336 335 335 336 336 335 336 336 337 337 336 335 335 337 337 337 338 339 339 339 339 339 339 339 338 336 335 333 331 329 328 328 328 327 327
340 341 350 353 347 342 344 346 346 345 341 338 336 335 333 332 333 333 334 335 336 335 336 337 343 348 349 350 355 359 356 359 367 366 362 363 363 359 358 356 350 344 341 341 341 339 338 337 336 336 336 335 335 335 336 335 336 338 339 339 337 334 333 333 333 334 336 337 337 336 336 337 337 337 336 335 334 332 331 329 328 327 327 327 328 330
341 340 346 351 349 346 346 347 347 342 336 336 337 337 337 335 332 332 332 332 331 330 330 332 336 344 352 356 356 359 361 364 364 366 371 375 372 367 364 358 348 343 342 342 341 339 337 336 336 336 335 335 335 335 335 337 340 342 341 338 333 331 331 330 330 331 333 333 332 332 333 335 334 334 332 331 330 329 328 327 326 326 326 327 330 332
347 347 346 345 347 346 342 343 345 339 333 333 336 338 340 336 332 331 330 328 328 328 328 330 331 336 345 354 358 359 360 365 369 372 374 376 376 370 363 352 342 340 342 343 341 339 338 337 337 337 337 337 337 336 336 339 342 341 337 334 332 331 331 330 330 331 332 331 331 332 334 334 333 331 330 329 328 327 327 327 327 327 328 329 330 330
346 345 341 341 343 344 344 347 347 341 337 336 335 336 338 336 333 331 329 329 330 332 331 331 333 334 335 343 355 361 356 359 369 374 373 378 379 367 354 345 340 339 342 343 342 342 340 339 338 338 337 337 336 336 336 337 339 337 335 334 334 332 331 332 333 333 332 332 331 332 334 333 331 330 329 328 327 327 327 328 328 328 328 327 325 325
348 346 343 342 342 342 345 348 348 344 342 340 336 333 334 335 334 332 331 330 332 334 334 333 336 338 335 333 341 349 353 360 367 368 371 375 366 350 344 342 340 339 341 342 343 343 341 340 340 338 335 334 334 334 333 333 335 335 333 333 332 331 332 335 336 336 335 334 333 333 333 332 331 330 329 328 327 327 327 326 324 324 323 323 323 323
Wind_Speed
5 4 4 5 8 8 8 8 8 7 5 7 7 7 7 8 7 8 10 12 12 12 10 14 15 16 17 16 15 14 14 14 14 12 11 12 12 11 10 10 11 10 9 12 18 23 26 28 28 28 27 26 27 29 30 28 28 28 27 26 24 23 23 22 21 21 21 19 18 17 16 16 15 14 13 13 13 13 12 12 11 9 8 6 4 3
4 6 7 9 11 10 9 8 7 5 5 7 7 7 7 7 8 8 9 11 11 9 7 13 16 16 17 16 15 15 15 15 16 15 13 15 14 11 12 13 13 9 7 11 14 19 24 25 26 27 26 27 26 27 29 28 27 28 27 26 24 23 23 23 23 23 23 22 20 19 17 16 14 12 12 12 12 11 10 9 9 8 7 4 1 1
4 6 10 11 9 7 8 7 6 5 6 7 6 6 6 5 4 4 5 10 10 7 7 13 15 14 16 16 15 17 17 14 16 17 16 17 15 12 13 13 12 9 9 11 12 16 21 23 25 26 26 27 28 28 29 29 28 28 27 27 25 24 25 24 23 23 23 22 21 18 15 13 11 10 10 11 9 8 8 8 9 8 5 3 2 1
4 6 10 11 8 6 8 8 6 5 5 6 5 4 5 5 6 4 5 10 7 6 11 14 11 10 11 12 14 17 17 13 15 17 16 17 17 16 16 15 14 13 12 13 12 13 19 22 24 25 26 27 28 28 28 28 28 28 27 26 26 27 25 24 22 22 21 20 18 16 13 11 10 9 10 11 10 9 8 8 7 6 5 4 3 2
6 8 7 9 9 8 9 9 6 5 5 6 7 6 4 6 10 9 6 7 3 5 13 12 6 5 9 11 12 12 13 13 14 15 14 15 16 16 15 15 16 16 15 15 14 13 15 19 22 25 26 26 27 28 29 29 29 28 27 26 26 27 26 24 23 20 18 18 17 15 14 12 10 8 8 8 9 8 8 7 7 6 6 6 4 3
8 9 5 7 10 9 8 9 8 7 5 5 7 9 8 9 13 10 7 7 5 3 10 12 7 4 6 10 12 10 11 12 12 15 15 14 13 13 13 14 15 15 15 15 14 14 15 19 22 24 26 25 26 28 29 30 30 29 28 26 26 27 25 24 23 20 18 18 17 16 16 14 11 10 11 12 12 11 10 9 9 9 8 8 6 4
6 9 6 8 10 10 9 9 10 7 4 6 7 10 11 10 11 12 11 8 5 5 11 13 9 4 4 8 12 11 12 13 12 15 15 13 13 13 13 13 14 13 13 13 14 14 15 19 21 22 26 27 27 28 29 29 29 29 28 28 28 27 25 24 23 21 20 19 17 16 17 15 13 13 13 12 11 10 10 10 9 9 8 7 4 2
7 10 8 9 9 10 9 8 10 7 5 7 7 9 10 8 13 16 14 10 6 4 7 7 4 5 5 9 10 10 12 14 13 14 15 14 14 15 14 14 15 15 14 13 14 14 15 19 22 23 26 29 29 29 30 29 30 30 29 29 29 28 26 25 23 22 21 20 19 18 17 14 13 13 12 10 8 6 7 7 6 5 5 4 2 1
6 9 10 11 10 8 7 9 10 7 6 9 7 9 8 7 13 16 14 11 5 6 5 6 3 5 4 5 5 8 11 14 16 17 17 16 16 16 16 16 16 16 16 15 15 15 16 20 24 26 28 29 30 30 31 31 31 31 30 29 29 28 27 26 24 23 21 20 20 19 17 15 12 11 11 10 8 7 7 7 6 5 6 5 2 2
6 9 10 11 9 8 8 10 9 8 8 9 7 6 3 3 8 12 11 8 5 5 7 9 5 4 3 3 5 7 9 13 15 17 17 17 17 17 16 16 16 15 14 15 15 15 19 24 27 29 29 30 30 32 33 32 31 31 31 30 30 29 28 27 25 23 22 21 21 20 19 16 13 12 12 11 9 9 9 8 7 6 7 5 3 3
6 7 8 8 8 9 10 11 10 10 10 8 6 5 3 3 4 6 3 4 5 3 7 13 13 7 2 4 5 8 13 17 16 14 14 15 16 17 15 15 15 14 12 13 14 15 20 26 28 29 29 30 31 32 33 32 32 32 32 31 31 30 29 28 26 24 23 23 22 21 20 17 15 15 14 13 11 10 10 9 7 7 7 6 4 4
9 8 6 5 8 9 9 10 9 8 8 6 2 2 4 3 3 3 4 2 4 5 6 14 16 10 5 5 7 12 18 19 17 16 18 18 18 17 14 14 15 14 13 13 13 14 16 20 23 27 28 30 31 32 32 33 33 32 32 32 32 31 30 29 27 26 25 25 24 22 20 18 16 17 16 14 11 10 10 10 9 9 8 6 5 4
9 10 8 6 9 10 9 8 8 6 5 6 2 5 3 2 1 1 1 2 5 5 6 11 14 9 7 7 12 18 20 17 16 18 21 22 20 17 14 14 14 13 14 14 13 13 14 14 19 24 27 28 30 32 33 34 33 33 33 34 33 33 32 31 29 28 27 27 26 22 20 18 18 18 17 14 12 11 11 11 11 10 9 6 5 5
6 8 10 9 7 9 11 8 7 6 4 6 5 4 5 3 1 3 3 2 2 5 6 7 9 6 5 6 12 21 22 20 19 18 20 20 19 18 17 16 15 14 15 14 13 14 14 15 19 25 27 28 30 33 34 34 34 34 34 35 35 35 34 32 31 31 29 28 26 23 21 20 19 19 17 14 13 13 12 12 12 11 9 7 7 6
6 7 9 10 5 7 13 12 9 8 5 5 5 6 5 5 4 4 4 3 3 4 5 3 4 4 4 5 11 20 22 20 17 12 13 16 17 17 16 14 15 15 15 14 14 16 15 18 23 27 28 30 32 34 35 35 35 35 35 36 37 36 35 35 34 34 32 29 26 24 23 22 21 19 16 15 14 14 13 13 13 11 9 9 8 8
7 8 7 8 7 9 12 10 9 8 5 5 4 6 4 6 6 2 4 5 4 2 3 3 3 4 5 5 6 11 14 13 11 9 12 15 15 14 12 13 14 14 14 14 14 15 15 19 25 27 28 30 32 35 36 36 37 37 36 37 38 37 37 37 37 36 33 30 27 26 26 24 22 20 17 16 15 14 14 13 12 11 10 10 9 9
5 6 7 6 7 10 11 9 9 8 6 4 3 5 5 6 8 3 2 2 3 2 4 2 2 4 2 5 5 3 6 8 11 12 14 15 15 15 14 14 14 13 14 14 14 15 15 18 23 27 29 30 32 35 37 39 40 41 40 39 38 38 38 39 38 37 34 32 29 28 27 25 23 21 18 17 16 15 14 13 12 11 10 10 9 9
5 5 7 7 8 10 10 9 9 8 7 5 5 7 4 2 4 4 2 2 4 1 5 3 3 4 1 4 4 5 7 9 12 14 14 13 15 16 15 15 16 16 16 16 16 16 15 18 23 27 29 32 35 38 40 42 43 43 42 42 40 39 40 41 40 38 35 33 31 30 29 26 24 22 19 17 16 16 15 14 13 12 11 11 10 10
4 4 7 7 9 8 6 7 8 6 5 6 5 6 5 4 2 1 3 2 1 2 3 4 5 3 3 5 3 3 9 11 12 14 13 14 15 16 15 16 18 17 14 14 14 13 13 16 22 27 29 33 36 39 41 42 42 42 42 43 43 43 43 43 41 38 37 34 33 33 30 27 25 22 19 18 16 16 16 15 15 14 12 11 11 11
4 2 5 7 6 7 5 5 7 6 4 3 4 3 3 4 5 3 4 5 4 3 3 4 5 4 5 5 5 9 12 13 14 13 13 15 17 16 15 15 16 15 14 13 13 13 14 17 24 30 32 34 37 39 39 39 39 41 41 41 41 42 42 42 41 38 37 35 34 33 31 28 25 22 20 19 17 17 18 17 17 15 13 11 11 12
4 4 5 8 5 6 6 5 8 8 5 4 4 4 3 1 3 2 2 3 4 4 3 3 4 5 5 4 7 10 10 11 14 14 13 15 16 16 15 15 15 14 14 14 14 14 14 17 25 31 34 35 36 35 35 36 38 40 39 39 40 40 41 41 41 38 37 36 35 33 31 29 26 23 21 21 19 18 18 18 17 14 12 12 12 12
4 5 5 6 6 5 6 8 11 12 9 7 6 6 6 4 4 3 3 2 3 5 5 5 4 6 5 4 7 8 8 8 12 14 13 13 15 16 14 15 15 14 15 15 15 15 14 15 22 28 30 30 30 30 33 35 36 36 36 37 38 39 41 42 40 38 37 37 36 34 32 30 27 24 23 22 20 19 19 18 16 14 13 13 13 13
6 4 4 6 7 7 8 11 13 13 11 9 7 7 7 5 5 5 5 4 2 2 2 4 2 5 6 4 5 8 9 9 11 13 12 11 13 15 13 13 14 14 15 15 15 14 13 15 21 26 27 28 29 31 33 34 34 35 36 36 36 38 41 41 40 39 38 38 37 35 33 31 28 25 24 23 22 20 19 18 16 14 13 13 13 15
6 4 4 3 5 6 8 9 9 10 9 7 5 5 6 6 6 6 5 5 4 2 2 4 1 5 6 5 1 8 9 8 9 11 12 11 11 12 12 12 12 13 14 14 14 13 12 14 17 19 21 25 28 30 32 33 34 34 34 34 35 38 41 40 39 39 38 38 37 35 34 32 29 28 27 25 23 21 20 19 16 14 14 13 13 15
5 5 6 3 3 5 5 6 6 6 5 4 4 5 7 7 8 5 2 3 2 3 5 6 2 6 5 5 3 4 11 11 9 10 12 12 10 10 10 10 11 12 12 12 12 11 11 11 12 15 19 24 26 29 31 33 33 33 33 34 37 39 39 38 37 37 37 37 36 35 35 33 30 30 28 26 23 20 20 18 15 14 14 14 14 17
5 5 6 6 6 5 5 6 6 5 4 3 4 8 9 9 9 6 3 4 3 3 5 6 4 6 5 3 5 4 10 11 9 9 10 11 12 11 10 10 11 11 11 12 13 12 11 12 12 14 19 24 27 29 31 32 33 33 33 35 37 38 38 37 37 37 38 37 35 34 35 33 32 30 27 24 20 18 18 17 15 15 15 15 15 16
4 5 7 9 9 8 8 9 8 7 7 5 6 9 9 9 9 6 5 4 6 5 4 5 7 6 5 5 7 7 9 10 9 10 9 9 11 11 10 10 10 10 11 12 12 11 12 12 13 15 19 24 27 29 31 32 33 33 33 36 38 38 38 37 36 37 39 39 38 36 35 32 31 29 26 23 19 18 20 19 17 18 18 16 14 14
4 5 8 12 14 13 12 10 9 9 11 10 9 9 9 8 8 8 6 6 6 7 5 8 9 12 11 11 11 11 10 10 10 11 11 10 10 11 11 11 12 12 11 11 11 12 13 13 14 14 17 23 27 28 30 31 32 33 35 38 39 38 37 37 37 38 39 40 39 35 30 28 29 28 25 23 21 21 22 21 20 22 21 16 14 14
5 6 8 11 13 14 12 10 9 11 12 11 10 10 11 11 9 9 7 7 9 8 7 9 12 16 14 12 13 14 13 13 14 13 13 12 11 11 11 12 12 12 12 12 11 12 12 13 14 13 15 21 25 25 26 28 30 31 33 36 37 36 36 36 37 36 36 35 31 24 23 24 27 28 25 22 23 24 23 21 22 23 21 17 15 15
5 6 9 13 11 11 13 11 9 10 10 12 14 13 11 11 11 9 7 9 12 9 8 12 15 14 13 14 16 14 10 10 10 10 10 10 10 10 11 11 12 12 12 12 12 12 12 12 13 13 13 17 21 23 25 27 28 29 30 32 31 31 32 34 34 32 30 29 26 23 25 28 29 29 25 23 25 25 23 22 24 24 21 19 17 16
7 6 7 11 9 9 11 9 7 7 9 12 15 12 7 6 6 3 2 5 7 3 4 13 15 11 9 10 9 5 4 6 7 9 9 9 10 11 11 11 11 11 10 11 10 10 9 9 9 9 9 14 19 24 25 24 24 26 28 31 33 36 39 39 37 33 28 29 30 31 34 34 32 26 22 25 28 25 23 24 26 25 23 21 19 17
6 5 3 6 6 5 6 6 7 6 6 5 4 4 3 4 2 2 2 3 4 3 4 7 9 9 7 5 6 6 6 9 11 10 9 7 8 10 10 9 8 8 8 8 8 7 7 7 7 6 8 13 18 21 21 22 24 26 31 37 38 37 35 32 31 30 29 35 39 38 36 35 28 18 18 28 31 27 26 27 27 26 24 23 21 18
3 4 3 6 5 3 4 4 7 6 5 2 3 2 3 6 7 6 3 1 2 6 7 5 7 7 2 2 5 6 7 10 10 7 6 6 6 8 8 8 7 7 7 7 7 7 7 7 7 10 13 15 15 17 21 26 30 33 37 35 29 27 28 29 29 29 30 34 35 33 32 28 17 13 22 31 32 29 29 29 27 26 25 23 21 20
2 3 5 5 6 3 4 2 6 4 4 4 4 3 5 8 11 10 5 2 3 5 6 3 5 6 8 8 6 6 6 6 6 5 5 7 7 7 7 8 8 8 8 8 8 9 9 8 8 10 12 11 10 13 20 25 27 29 27 23 22 28 33 32 29 27 29 32 31 29 26 18 12 20 29 33 32 32 32 31 29 27 25 23 22 21
4 1 2 3 5 4 1 4 5 4 6 5 4 4 6 9 13 12 6 3 6 8 10 8 4 5 12 14 10 8 6 4 5 5 6 8 8 8 8 8 8 9 8 8 8 7 5 4 4 6 8 10 11 14 18 17 14 14 14 15 17 20 21 20 20 21 26 30 29 24 18 13 18 27 32 32 33 34 33 32 30 28 25 24 24 24
1 2 2 3 3 3 3 4 4 5 5 5 2 5 6 6 8 9 7 6 6 6 9 11 7 5 9 12 11 11 9 6 4 2 5 7 6 7 8 9 8 8 8 7 7 6 6 8 12 15 16 17 18 20 22 20 20 22 21 21 25 25 22 23 24 24 27 29 26 20 17 20 26 31 32 32 33 34 33 32 31 28 27 26 26 25
5 3 2 3 2 3 5 3 1 0 4 6 4 1 1 2 4 7 5 3 6 5 4 9 9 6 7 9 8 9 10 8 6 5 5 6 6 6 7 7 7 6 5 4 5 8 12 17 20 21 21 21 21 24 26 26 29 31 29 30 34 34 32 31 31 34 35 33 32 30 27 27 30 31 31 32 33 33 33 32 31 30 29 28 28 26
4 3 4 3 1 2 5 4 3 3 2 3 6 6 3 3 7 9 7 2 6 8 4 7 12 10 10 10 8 8 7 8 6 3 7 5 1 4 6 6 6 7 8 10 12 13 16 21 22 22 23 23 23 25 29 31 33 33 32 32 35 37 37 36 37 38 37 36 39 39 33 31 32 32 32 34 35 34 34 33 33 32 31 29 28 26
6 2 4 5 2 2 5 5 2 3 2 4 7 8 5 3 7 8 7 2 6 10 7 4 10 10 11 10 9 7 7 6 3 4 7 4 5 8 10 9 8 8 10 13 17 18 19 21 23 23 25 25 25 28 31 33 35 34 32 33 35 35 35 35 36 37 38 38 40 39 34 31 32 33 33 35 37 36 35 34 34 33 32 30 28 25
6 4 4 5 3 3 5 4 2 2 1 3 6 9 7 0 6 9 5 2 7 9 6 4 7 5 6 7 6 6 6 6 6 5 7 1 7 9 9 9 9 9 10 13 17 21 23 24 25 24 23 24 27 29 32 33 34 33 32 34 34 33 34 37 38 40 41 40 40 38 34 32 34 36 36 37 38 37 36 35 34 33 32 30 28 25
4 4 2 4 4 4 5 3 0 1 1 5 9 10 10 4 8 8 3 5 5 6 4 10 9 6 7 8 7 6 4 4 5 5 5 2 9 8 7 8 9 10 11 13 16 20 22 22 22 23 23 26 29 31 31 32 30 28 29 30 30 32 37 40 41 40 39 37 35 33 31 30 33 35 35 37 37 35 34 34 33 31 29 27 23 15
2 3 3 2 3 3 4 4 2 0 1 7 11 9 6 4 5 3 4 4 3 1 7 11 10 7 8 9 7 6 4 2 2 2 2 6 9 8 7 8 9 9 10 13 16 19 20 18 19 21 23 27 30 32 32 31 27 26 27 28 31 36 38 38 37 37 35 32 30 29 28 30 33 34 34 35 34 32 30 29 27 25 23 21 16 12
1 1 2 2 1 2 3 4 2 1 5 10 10 6 5 4 4 5 3 1 2 2 9 9 7 7 7 7 6 5 4 3 3 4 5 7 7 7 7 7 8 8 9 11 12 15 18 17 18 20 23 26 29 30 31 29 27 26 27 29 34 35 33 33 35 34 30 28 27 26 25 25 24 23 23 23 22 22 23 22 21 21 20 18 13 11
2 3 2 1 1 2 3 2 2 3 6 8 7 5 4 4 2 3 4 2 2 3 7 7 6 6 6 6 6 6 6 5 3 4 5 5 6 6 6 7 7 8 9 9 11 13 15 16 17 18 22 25 26 26 28 29 27 25 26 30 33 31 29 30 31 28 27 26 24 21 19 18 16 14 15 17 17 18 19 20 20 21 20 17 11 7
3 4 4 3 2 4 5 2 3 4 5 5 10 8 6 7 5 3 5 5 3 4 5 6 7 7 6 6 7 8 6 4 3 4 4 4 4 5 5 6 7 9 10 11 13 14 15 16 19 20 21 22 23 25 26 26 24 23 25 27 26 24 25 25 23 20 17 13 9 9 13 18 20 21 23 24 24 24 24 23 22 20 18 14 11 10
2 2 2 3 3 4 5 1 2 3 5 7 10 10 8 8 6 5 7 7 5 5 5 6 7 7 7 8 8 6 3 2 4 4 3 3 4 4 5 5 6 8 11 12 14 14 13 15 18 20 19 19 21 23 23 22 22 22 20 15 11 11 12 11 11 12 13 12 8 7 12 17 20 22 24 25 25 26 26 26 23 18 14 11 10 12
2 2 3 3 3 3 3 2 2 4 6 8 10 9 8 8 7 7 8 6 5 5 6 5 6 7 8 9 8 4 1 2 5 4 3 4 4 4 5 6 5 6 9 11 14 16 16 15 15 15 14 15 17 18 18 18 18 15 12 11 14 16 16 14 10 9 12 14 13 15 18 21 22 22 22 21 22 24 24 21 16 12 10 10 11 11
1 2 4 3 2 3 3 3 2 6 8 7 8 7 7 7 7 8 8 6 6 8 8 8 8 8 7 6 5 4 3 2 3 4 3 3 4 4 4 5 5 6 9 12 15 17 16 15 13 12 12 13 15 17 17 15 11 11 14 17 17 15 14 13 10 10 14 17 19 19 21 23 23 24 24 23 22 21 18 14 11 9 9 11 11 11
1 2 2 3 3 5 3 3 2 7 9 8 8 7 5 5 6 8 9 9 10 11 11 11 10 7 6 5 4 4 5 3 1 4 4 3 3 3 2 3 4 7 9 10 12 13 13 13 14 14 14 14 16 18 16 13 15 18 18 16 12 8 5 6 9 13 18 20 21 21 22 23 24 26 25 23 20 17 13 11 10 10 10 11 11 12
4 2 1 5 6 4 3 4 4 6 5 3 5 6 4 3 7 10 9 9 11 10 10 11 11 10 8 6 4 3 3 3 2 2 3 2 2 2 1 2 4 6 7 9 10 11 12 14 16 17 16 15 16 18 17 17 20 21 18 13 8 3 3 5 10 15 19 21 20 20 23 23 23 23 22 20 17 15 12 10 10 10 12 13 12 10
4 4 3 5 5 3 3 4 4 5 5 2 1 4 5 6 9 8 5 6 7 7 6 6 6 7 8 6 4 4 5 6 4 3 3 4 4 5 5 5 6 7 8 11 14 15 15 17 18 18 17 18 19 21 20 18 17 17 16 13 7 2 9 12 16 18 20 22 21 22 23 22 21 21 20 18 17 16 16 15 13 12 12 11 9 7
Wind_Direction
161 212 245 222 238 227 202 197 201 218 216 203 179 162 172 170 198 201 179 184 155 134 166 161 150 161 167 175 175 169 166 165 173 172 166 172 175 178 179 178 182 186 187 182 181 181 180 179 179 181 181 177 177 180 182 182 184 187 187 189 194 198 200 199 198 199 204 208 209 213 220 225 227 229 233 236 241 246 246 248 251 248 248 247 245 251
165 207 231 223 231 230 219 213 197 208 242 233 199 179 189 181 198 206 179 178 153 127 170 159 149 166 172 176 177 170 172 176 178 176 172 175 178 179 179 180 181 181 172 164 170 174 173 173 175 177 177 177 178 180 183 184 183 186 187 188 191 194 197 200 201 202 206 210 210 212 218 222 225 229 236 240 241 241 237 234 233 233 232 220 186 195
205 221 233 231 235 239 246 239 212 221 238 234 215 173 196 199 183 228 196 170 157 126 162 162 154 172 180 177 178 175 179 184 183 180 176 175 176 179 179 179 178 171 164 164 163 167 167 166 169 173 173 176 178 179 184 186 187 187 189 192 193 195 198 202 205 207 209 211 212 216 220 222 225 233 241 243 242 236 231 227 222 222 212 178 154 216
219 236 232 232 241 245 256 257 235 237 243 236 227 175 197 198 162 221 216 172 165 137 159 164 156 174 182 180 184 183 181 182 186 185 178 175 176 179 180 175 174 172 170 171 167 167 168 166 167 171 174 177 178 180 183 185 187 189 193 196 197 198 200 202 204 207 209 210 212 218 223 225 229 241 249 244 239 238 233 222 214 208 196 187 188 191
228 243 227 226 237 236 247 258 242 231 242 229 216 197 191 192 191 207 188 154 111 114 151 146 127 184 189 187 193 189 183 181 183 184 180 181 181 178 177 175 175 175 173 173 172 169 170 171 172 174 177 180 181 183 186 188 189 192 196 199 198 198 201 203 203 204 207 209 211 213 214 220 225 227 226 209 199 203 198 180 172 175 183 184 169 158
237 246 224 215 232 235 239 251 240 219 235 245 221 203 191 199 205 196 162 135 90 121 165 144 133 228 219 195 193 186 186 185 181 185 184 185 184 177 175 178 180 178 175 175 174 172 171 174 177 179 180 182 185 188 190 193 194 196 199 197 194 197 202 203 203 204 207 208 210 208 206 210 205 184 169 162 162 166 166 160 159 161 162 161 152 148
230 243 235 219 229 234 234 248 242 213 213 257 230 200 202 202 189 175 162 153 143 186 188 165 154 199 229 215 204 186 183 189 188 190 189 185 185 182 180 180 181 179 178 177 175 176 175 175 178 181 183 185 188 191 192 194 196 197 198 196 195 198 200 200 201 204 206 208 209 206 205 209 203 186 173 165 161 159 158 155 155 153 153 159 162 164
207 225 238 233 232 235 232 244 242 202 195 251 230 196 205 185 166 169 167 177 183 152 175 186 128 129 193 219 205 180 177 190 197 195 194 192 188 188 185 182 182 181 180 178 177 178 178 179 180 182 186 188 190 191 191 193 196 197 198 199 199 200 200 200 202 204 206 207 205 201 203 212 212 202 190 180 176 176 175 173 171 170 177 193 208 240
208 212 225 230 234 236 229 236 233 198 203 243 226 195 195 170 170 174 172 186 177 104 165 218 96 118 220 243 182 172 179 191 202 201 198 197 192 190 188 185 184 183 181 180 179 181 181 182 182 183 186 189 190 191 192 195 196 198 200 200 199 200 202 203 203 204 207 206 202 200 204 207 203 200 194 190 197 207 210 207 200 195 195 195 199 219
221 208 209 219 233 235 233 241 230 199 215 244 233 200 174 126 166 175 175 176 138 120 189 208 168 145 250 255 169 170 190 199 204 204 201 197 193 193 191 186 185 184 182 183 181 182 184 183 183 183 185 187 189 191 194 196 197 199 200 199 199 202 204 203 202 205 205 203 202 204 203 197 189 188 188 189 196 200 202 201 197 193 190 191 203 196
236 225 208 210 227 231 233 242 231 205 213 245 257 237 267 15 113 155 155 122 136 191 209 199 194 178 203 242 193 182 201 199 195 200 203 199 194 195 192 185 184 183 183 184 183 183 184 184 182 182 183 185 187 191 194 195 197 198 199 200 200 202 203 202 203 203 202 201 204 203 200 197 192 189 187 185 186 190 195 202 207 206 200 206 219 196
243 244 230 211 218 222 230 242 240 217 206 227 255 179 235 305 56 83 15 68 171 242 234 198 194 185 204 241 211 208 213 200 187 192 197 196 196 195 191 184 184 184 183 184 183 182 182 182 182 182 184 184 185 189 192 194 197 198 199 200 200 201 202 202 203 202 201 202 203 201 200 201 198 195 195 196 198 200 205 213 215 208 207 220 228 215
239 235 238 233 221 212 217 237 246 242 211 208 186 105 148 265 350 108 263 196 198 248 245 191 179 188 222 225 205 209 217 206 191 192 193 192 190 189 188 186 185 182 181 184 184 183 182 182 183 184 185 185 185 188 190 193 195 197 198 199 198 199 200 201 201 200 199 199 199 201 203 202 200 200 203 207 209 207 210 214 209 206 213 226 222 213
244 243 232 228 230 208 207 219 230 239 220 194 185 148 153 167 169 224 231 213 207 253 257 195 170 195 252 246 209 204 209 208 200 194 191 187 182 183 189 186 183 183 183 185 186 186 185 185 185 185 186 186 186 189 190 191 193 195 197 198 198 199 199 199 199 198 197 197 199 203 202 199 198 199 202 205 205 202 205 209 209 214 221 220 213 210
222 244 224 214 220 204 209 212 201 199 204 204 174 147 159 159 163 212 208 185 200 238 268 239 176 189 211 237 212 199 206 208 198 185 174 178 181 182 187 185 181 185 186 187 189 190 189 186 186 186 186 186 187 188 190 191 192 193 195 196 197 197 196 196 197 198 198 199 201 201 198 196 199 201 202 203 203 203 205 209 213 217 218 215 218 221
212 238 234 218 213 205 210 207 183 172 198 225 145 119 171 177 159 188 200 186 174 204 258 224 205 208 204 258 245 198 203 200 181 159 154 171 179 175 181 187 186 187 188 190 193 193 191 188 187 187 187 187 187 188 189 190 191 193 194 195 196 195 194 194 196 197 199 200 200 198 197 199 200 202 202 199 200 203 204 208 211 209 209 212 212 213
200 248 257 225 218 217 208 188 174 172 185 215 168 169 209 172 141 133 247 263 90 135 260 243 256 293 296 302 324 117 162 171 163 166 167 169 169 169 181 190 188 190 192 193 194 192 191 189 189 190 188 187 187 188 190 191 192 193 194 194 194 193 192 193 196 198 199 199 198 197 199 200 200 202 202 198 198 201 202 207 209 206 208 207 200 203
184 255 271 226 222 232 215 189 187 181 154 149 202 211 202 143 115 108 171 321 54 155 275 297 258 283 276 272 326 80 144 172 172 177 174 165 165 173 183 188 191 195 194 194 195 192 190 190 191 191 190 190 190 190 191 192 193 194 194 194 192 190 191 194 197 198 198 198 198 198 199 199 201 204 205 203 201 200 202 206 205 204 206 202 200 207
189 253 283 238 220 225 214 196 207 216 162 149 183 193 161 156 194 127 161 179 109 195 276 303 277 255 197 231 268 175 181 184 181 180 171 165 171 177 182 187 193 196 194 195 196 193 190 191 192 192 192 193 193 193 194 193 193 193 194 194 192 192 193 195 197 198 198 199 199 199 200 201 203 205 207 206 201 197 199 202 202 204 207 206 208 213
192 203 282 269 229 196 194 195 205 234 232 160 143 166 180 171 175 183 169 161 166 192 227 279 291 270 224 218 211 207 200 183 178 179 175 176 180 182 181 184 192 195 194 196 196 193 191 192 194 193 194 194 195 195 195 192 192 193 194 194 193 193 193 195 197 197 197 199 199 199 201 202 204 206 207 205 201 197 199 202 205 209 213 213 214 218
185 183 247 286 272 192 197 208 194 196 199 173 148 179 217 195 140 173 197 148 145 156 184 221 258 267 251 212 198 207 200 180 176 175 181 186 184 183 181 181 188 193 193 196 196 194 193 193 195 196 196 196 195 195 194 192 193 194 194 193 192 192 192 195 196 196 196 197 198 199 200 203 205 205 205 204 203 203 202 204 210 216 219 217 218 226
179 177 210 261 270 228 225 220 197 187 181 170 168 185 193 166 126 157 241 263 138 150 174 184 221 262 261 226 206 189 165 172 179 176 183 188 184 185 186 182 184 188 192 197 197 194 193 194 196 197 197 195 194 194 194 194 195 194 194 193 192 191 193 195 195 195 196 196 198 201 202 203 204 204 205 205 207 207 205 208 214 219 219 218 221 232
172 148 180 233 251 242 236 227 203 186 173 166 178 189 181 157 127 146 200 230 194 175 153 128 155 263 268 257 200 157 149 173 181 175 178 182 184 187 186 183 182 187 193 196 196 194 193 195 196 195 194 194 194 195 195 195 195 196 195 193 191 193 195 195 194 194 194 195 198 200 201 202 203 204 205 205 207 207 208 214 218 217 218 220 226 234
175 163 175 237 279 270 258 249 220 186 160 158 184 178 168 174 164 158 174 180 182 208 144 102 108 259 275 299 175 140 141 160 170 166 168 173 183 185 179 178 182 188 195 196 195 197 194 192 193 193 193 195 196 197 196 196 196 196 195 192 192 195 197 195 194 193 191 193 197 199 200 201 201 203 204 206 208 209 213 218 215 211 216 222 232 241
185 182 163 176 259 274 281 273 244 217 185 173 179 174 181 179 161 151 128 123 169 215 159 128 177 246 270 327 321 154 138 142 158 162 164 168 175 178 174 176 181 186 193 195 196 198 191 186 188 193 196 197 197 197 196 197 197 195 193 193 194 198 197 194 193 190 188 192 196 197 198 200 201 202 203 205 209 213 218 220 212 208 216 227 241 251
181 179 160 172 199 210 213 219 219 213 214 216 173 174 192 187 169 161 125 132 196 214 144 137 185 247 279 314 283 216 141 137 153 159 161 167 170 175 175 176 181 183 187 192 194 194 190 189 192 195 198 198 198 198 197 197 197 195 193 194 196 198 196 193 192 188 185 188 194 197 198 198 199 199 200 203 209 217 223 222 216 217 225 235 245 250
152 180 173 174 191 201 200 213 211 176 178 208 190 179 196 197 173 141 111 154 189 170 172 203 181 185 233 226 222 208 159 148 158 158 161 167 167 172 175 176 180 182 188 192 191 190 190 192 196 196 199 200 200 199 198 197 196 194 192 194 198 198 195 192 191 187 184 185 192 198 199 197 196 194 197 203 208 216 223 223 225 230 235 237 236 230
130 188 186 176 194 210 206 216 214 179 180 198 193 190 203 194 156 134 152 186 161 142 211 243 181 165 198 209 200 196 176 161 165 165 166 168 168 172 177 179 182 185 192 195 191 191 192 193 197 199 199 201 201 200 199 199 197 194 193 196 197 196 193 191 189 188 185 184 188 194 194 193 193 194 200 206 208 215 221 224 230 237 237 228 216 211
139 195 195 179 199 215 212 216 205 185 190 195 190 199 212 205 175 163 180 175 151 159 212 217 182 177 191 199 197 195 183 174 175 171 166 166 170 174 175 176 184 191 195 198 199 197 196 198 199 200 201 202 201 198 197 198 197 196 196 198 197 194 191 190 188 188 185 182 181 184 187 193 198 200 204 207 210 217 222 225 233 236 230 218 213 217
165 206 195 183 201 214 210 212 193 178 190 196 197 206 215 213 197 184 188 175 170 189 196 176 181 193 193 194 201 199 183 171 167 157 153 159 165 170 172 176 186 196 197 200 205 204 203 205 203 200 201 201 200 197 197 197 195 195 195 196 195 190 187 187 186 186 182 173 169 178 190 200 206 205 205 208 212 218 222 225 231 231 224 221 225 233
211 222 194 177 189 208 206 199 171 163 181 190 198 205 203 208 212 198 184 169 170 213 187 163 178 208 216 198 190 171 126 121 137 149 159 166 164 164 171 181 189 196 201 206 210 211 213 216 215 211 204 203 203 200 197 194 190 188 190 192 192 189 187 185 183 183 178 166 169 186 196 201 203 203 209 215 216 218 221 225 230 230 227 227 231 238
223 218 169 142 155 202 207 164 129 127 132 144 192 210 137 129 134 76 81 137 146 130 94 131 178 218 238 197 137 119 135 146 154 161 162 164 161 157 165 178 185 191 201 210 214 216 220 228 230 222 213 215 211 201 192 183 179 182 188 191 192 187 181 177 177 182 180 172 179 192 196 194 194 201 221 224 218 216 220 224 228 229 228 229 234 243
216 184 148 128 144 229 251 136 112 101 97 60 292 257 113 113 114 98 80 66 129 132 121 143 205 218 223 128 128 140 158 157 155 157 146 135 132 136 149 159 166 178 191 197 202 205 210 220 221 214 216 219 211 197 188 181 181 188 191 188 181 167 161 168 180 187 180 172 179 189 187 183 189 214 225 222 217 217 220 223 225 226 227 231 238 244
322 165 164 141 138 216 268 110 95 107 160 209 247 197 126 117 114 104 99 96 97 127 137 162 212 176 124 109 116 134 151 150 145 147 139 131 130 140 157 167 170 177 184 190 196 201 205 210 211 209 210 205 188 183 185 186 190 194 186 171 159 158 163 171 179 177 165 164 173 180 178 181 211 224 222 220 218 217 219 221 224 225 228 234 239 241
335 47 142 111 121 165 236 74 99 176 210 228 226 153 115 109 110 104 98 87 88 103 103 80 56 134 128 123 123 124 125 125 121 133 151 154 151 155 167 180 181 174 176 186 192 196 202 190 146 135 138 138 144 160 169 173 172 160 139 120 126 141 146 146 145 144 147 155 164 170 178 203 220 219 220 221 219 218 219 221 223 224 228 233 237 240
50 37 73 57 87 135 92 79 148 212 264 306 359 100 90 80 89 83 51 8 12 61 94 94 81 82 104 115 126 129 127 120 97 116 194 193 180 165 169 181 184 178 182 190 185 177 167 148 136 133 137 147 155 157 155 151 144 140 135 129 130 133 134 133 136 144 151 156 160 172 200 219 216 215 219 219 217 216 216 218 221 224 228 233 236 239
119 92 74 49 42 125 115 102 166 270 333 334 352 78 127 144 141 118 88 360 329 348 70 116 115 99 93 102 117 128 125 107 66 5 291 240 209 188 174 174 173 163 153 134 125 134 137 135 137 141 145 150 152 149 147 147 147 145 143 142 143 147 150 154 159 165 168 170 173 183 204 218 217 216 217 215 212 211 213 217 222 226 229 231 234 237
97 124 135 115 43 89 101 78 36 60 55 284 281 292 312 137 151 133 101 15 323 336 342 141 137 135 132 131 140 139 111 83 70 336 297 289 205 112 98 104 120 120 114 109 105 109 119 126 134 142 145 144 145 149 151 151 148 143 140 144 150 154 161 170 174 174 176 180 181 189 205 220 223 223 219 215 214 215 217 220 224 228 230 230 232 237
22 61 110 100 65 59 96 98 112 130 158 252 283 313 344 113 135 100 67 359 312 325 317 174 147 143 139 141 151 135 103 96 135 248 284 322 55 81 92 97 100 107 117 126 126 125 129 132 135 140 144 144 148 154 156 155 150 145 144 152 159 164 172 180 180 179 183 187 188 197 212 222 227 226 219 215 217 220 222 224 227 229 229 229 233 238
3 9 58 83 73 56 88 114 171 143 119 304 316 324 316 248 100 74 65 280 297 316 329 93 110 109 105 108 105 91 101 143 171 228 262 296 75 88 111 119 119 123 127 131 133 134 137 139 139 142 147 150 154 157 157 156 153 152 155 160 165 170 179 185 186 187 190 191 195 206 217 223 227 225 218 217 221 222 223 225 227 227 226 228 231 234
356 360 33 107 97 62 81 104 170 119 24 335 336 323 307 333 64 77 150 219 280 312 33 78 79 70 77 84 81 77 100 157 176 216 238 116 86 91 110 112 112 121 129 134 136 137 139 143 146 148 154 157 157 158 159 157 156 160 164 166 172 180 185 188 191 193 194 197 204 213 219 223 225 224 220 220 222 222 223 225 224 223 223 223 221 213
1 359 353 58 92 73 98 98 32 259 287 327 331 323 324 36 88 142 194 208 242 343 71 76 77 75 74 75 81 96 116 154 184 190 117 90 98 109 115 109 103 106 117 129 138 142 142 144 147 150 157 160 160 162 163 160 160 164 167 174 185 191 192 192 194 198 202 206 211 217 222 227 230 228 226 226 225 222 220 219 219 219 215 207 192 163
161 110 346 355 92 79 80 75 64 213 284 322 338 345 10 61 163 191 158 163 235 103 81 74 69 73 81 89 98 109 108 84 68 77 78 86 103 113 115 118 118 120 124 132 146 153 148 144 150 156 160 164 166 168 167 165 166 170 176 187 196 196 195 198 202 206 211 214 219 224 229 232 234 233 232 233 231 223 217 215 211 203 193 183 166 151
177 166 167 190 130 77 81 90 136 213 275 329 28 55 25 35 144 169 108 76 317 57 81 77 58 51 69 87 88 74 58 45 42 63 77 85 98 111 121 125 127 133 136 136 148 158 152 147 152 161 166 170 171 171 171 172 173 178 188 197 199 196 197 202 207 213 220 225 229 230 227 223 225 234 240 240 236 230 226 219 203 186 178 175 168 175
218 200 161 117 87 102 121 170 237 253 286 3 58 65 38 34 44 64 86 81 38 25 66 82 71 52 45 57 64 56 43 26 26 46 67 85 90 103 116 125 136 141 140 140 149 160 163 158 157 163 171 176 176 175 177 178 177 183 198 206 206 204 205 208 212 217 221 220 216 213 218 222 225 231 235 235 232 227 216 201 186 175 175 184 196 222
240 229 128 103 121 119 101 71 309 342 358 22 52 62 54 45 34 36 62 67 46 25 40 77 90 85 71 65 61 52 41 70 71 61 71 91 82 86 99 107 126 136 137 144 155 164 168 162 160 166 172 177 182 183 184 184 185 191 201 206 192 181 183 186 187 180 165 151 156 199 231 236 231 228 230 231 227 216 200 185 179 177 180 194 216 230
318 20 69 93 132 130 92 349 347 54 40 28 40 48 47 45 41 44 55 56 50 50 51 61 79 83 78 77 80 80 75 109 102 101 116 107 94 94 105 108 119 139 151 162 166 167 166 163 164 168 167 172 182 184 183 187 192 191 178 145 124 121 114 102 107 142 159 168 191 214 224 223 216 209 207 205 199 190 181 176 177 182 188 204 216 218
306 50 83 83 62 94 135 218 203 86 69 52 54 46 25 28 40 49 53 49 40 38 36 39 48 56 59 68 90 93 46 26 87 101 99 92 85 75 79 97 121 147 163 172 173 169 164 159 158 159 158 164 176 180 181 184 180 157 138 125 117 117 119 124 148 194 206 201 202 204 201 195 187 177 173 172 171 170 171 175 185 193 197 202 205 204
122 54 101 123 93 80 108 207 171 87 64 49 56 52 13 1 32 44 47 47 40 30 23 24 31 40 47 42 41 52 38 360 62 108 100 98 99 88 68 86 135 160 167 170 169 165 158 151 150 150 149 155 169 176 174 157 136 126 122 115 107 106 125 165 187 208 218 217 211 201 187 178 173 168 167 167 168 170 175 184 194 194 188 185 188 190
93 85 102 116 119 134 182 203 171 120 99 72 74 83 76 50 47 38 29 37 46 36 21 19 15 7 13 19 7 4 1 309 277 122 119 155 167 157 131 108 140 158 157 147 146 147 147 145 145 142 136 139 151 156 145 126 119 118 115 110 103 76 300 237 197 196 207 210 202 187 175 171 171 172 173 174 175 174 171 169 172 175 173 171 173 177
125 159 167 123 130 179 186 152 134 118 125 167 149 99 100 93 81 63 24 28 53 48 36 44 27 342 336 343 330 310 295 272 242 174 178 218 197 162 160 170 167 160 152 145 141 140 143 145 143 136 128 123 124 123 113 103 107 115 115 112 108 284 260 225 194 188 196 198 190 184 181 180 180 181 181 181 181 177 166 154 150 156 163 165 165 171